Weather History for K3A1 - March, 2013

Change the Weather History Date:

Sunday, March 31, 2013

  Actual Average (KHSV) Record (KHSV)
Temperature  
Mean Temperature 60 °F 58 °F  
Max Temperature 66 °F 69 °F 88 °F (1963)
Min Temperature 54 °F 46 °F 26 °F (1942)
Degree Days  
Heating Degree Days 5 8  
Month to date heating degree days 369  
Since 1 July heating degree days 2820  
Cooling Degree Days 0 1  
Month to date cooling degree days 13  
Year to date cooling degree days 14  
Growing Degree Days 10 (Base 50)    
Moisture  
Dew Point 55 °F    
Average Humidity 89    
Maximum Humidity 99    
Minimum Humidity 65    
Precipitation  
Precipitation 0.07 in 0.17 in 2.22 in (1922)
Month to date precipitation 5.21  
Year to date precipitation 14.94  
Snow  
Snow 0.00 in - - ()
Month to date snowfall  
Since 1 July snowfall  
Snow Depth -    
Sea Level Pressure  
Sea Level Pressure 29.95 in    
Wind  
Wind Speed 5 mph (SW)    
Max Wind Speed 13 mph    
Max Gust Speed 20 mph    
Visibility 8 miles    
Events Fog , Rain    
T = Trace of Precipitation, MM = Missing Value Source: NWS Daily Summary

Daily Weather History Graph

Daily Weather History Graph

Search for Another Location

Airport or City:

Trip Planner

Search our weather history database for the weather conditions in past years. The results will help you decide how hot, cold, wet, or windy it might be!

Date:

Astronomy

Mar. 31, 2013 Rise Set
Actual Time 6:35 AM CDT 7:07 PM CDT
Civil Twilight 6:10 AM CDT 7:33 PM CDT
Nautical Twilight 5:40 AM CDT 8:02 PM CDT
Astronomical Twilight 5:10 AM CDT 8:33 PM CDT
Moon No Moon Rise 9:34 AM CDT (3/31)
Length of Visible Light 13h 22m
Length of Day
12h 32m
Waning Gibbous, 77% of the Moon is Illuminated
Mar 31
Waning Gibbous
Apr 2
Last Quarter
Apr 10
New
Apr 18
First Quarter
Apr 25
Full

Hourly Weather History & Observations

Time (CDT) Temp. Dew Point Humidity Pressure Visibility Wind Dir Wind Speed Gust Speed Precip Events Conditions
12:15 AM 54.5 °F 54.1 °F 99% 30.01 in 3.0 mi SSW 6.9 mph - N/A   Heavy Drizzle
12:35 AM 54.7 °F 54.3 °F 99% 30.00 in 3.0 mi South 8.1 mph - 0.01 in   Light Drizzle
12:55 AM 54.9 °F 54.5 °F 99% 29.99 in 5.0 mi SSW 9.2 mph - 0.01 in   Overcast
1:15 AM 55.2 °F 54.5 °F 97% 29.99 in 4.0 mi SW 6.9 mph - N/A Rain Rain
1:35 AM 55.4 °F 54.7 °F 97% 29.99 in 5.0 mi SW 5.8 mph - N/A   Overcast
1:55 AM 55.6 °F 54.7 °F 97% 29.99 in 7.0 mi SW 9.2 mph - N/A   Overcast
2:15 AM 55.9 °F 54.7 °F 96% 29.99 in 10.0 mi WSW 5.8 mph - N/A   Overcast
2:35 AM 55.9 °F 54.7 °F 96% 29.99 in 10.0 mi SW 5.8 mph - N/A   Overcast
2:55 AM 55.9 °F 54.5 °F 95% 29.98 in 10.0 mi WSW 5.8 mph - N/A   Overcast
3:15 AM 55.8 °F 54.3 °F 95% 29.98 in 10.0 mi WSW 5.8 mph - N/A   Overcast
3:35 AM 55.6 °F 54.1 °F 95% 29.98 in 10.0 mi SW 3.5 mph - N/A   Overcast
3:55 AM 55.4 °F 54.0 °F 95% 29.97 in 10.0 mi SSW 4.6 mph - N/A   Overcast
4:15 AM 54.9 °F 53.6 °F 96% 29.96 in 10.0 mi Calm Calm - N/A   Overcast
4:35 AM 54.7 °F 53.6 °F 96% 29.96 in 10.0 mi SSW 3.5 mph - N/A   Overcast
4:55 AM 54.7 °F 53.6 °F 96% 29.97 in 10.0 mi Calm Calm - N/A   Overcast
5:15 AM 54.7 °F 53.2 °F 95% 29.97 in 10.0 mi SW 6.9 mph - N/A   Overcast
5:35 AM 54.5 °F 53.2 °F 96% 29.97 in 10.0 mi WSW 3.5 mph - N/A   Overcast
5:55 AM 54.5 °F 53.1 °F 95% 29.97 in 10.0 mi WSW 4.6 mph - N/A   Overcast
6:15 AM 54.5 °F 52.9 °F 94% 29.97 in 10.0 mi SW 3.5 mph - N/A   Overcast
6:35 AM 54.5 °F 52.7 °F 94% 29.97 in 10.0 mi SW 4.6 mph - N/A   Overcast
6:55 AM 54.7 °F 52.9 °F 94% 29.97 in 10.0 mi Calm Calm - N/A   Overcast
7:15 AM 54.7 °F 53.4 °F 96% 29.98 in 7.0 mi SSW 3.5 mph - N/A   Overcast
7:35 AM 54.7 °F 53.8 °F 97% 29.98 in 4.0 mi South 3.5 mph - N/A   Overcast
7:55 AM 54.7 °F 54.1 °F 98% 29.98 in 2.0 mi South 3.5 mph - N/A   Overcast
8:15 AM 54.7 °F 54.5 °F 99% 29.98 in 0.2 mi Calm Calm - N/A Fog Fog
8:35 AM 54.9 °F 54.7 °F 99% 29.96 in 0.2 mi SE 3.5 mph - N/A Fog Fog
8:55 AM 54.9 °F 54.7 °F 99% 29.96 in 0.5 mi SSE 4.6 mph - N/A Fog Fog
9:15 AM 55.2 °F 55.0 °F 99% 29.96 in 0.5 mi SSW 4.6 mph - N/A Fog Fog
9:55 AM 55.6 °F 55.4 °F 99% 29.97 in 3.0 mi SSW 3.5 mph - N/A   Overcast
10:15 AM 56.7 °F 55.6 °F 96% 29.96 in 7.0 mi Calm Calm - N/A   Overcast
10:35 AM 58.1 °F 55.9 °F 93% 29.97 in 10.0 mi SSW 5.8 mph - N/A   Overcast
10:55 AM 59.7 °F 55.9 °F 87% 29.97 in 10.0 mi SW 6.9 mph - N/A   Overcast
11:15 AM 61.7 °F 55.8 °F 81% 29.97 in 10.0 mi SW 10.4 mph - N/A   Mostly Cloudy
11:35 AM 62.4 °F 55.0 °F 77% 29.96 in 10.0 mi SW 6.9 mph - N/A   Mostly Cloudy
11:55 AM 63.0 °F 55.0 °F 75% 29.96 in 10.0 mi SSW 10.4 mph - N/A   Mostly Cloudy
12:15 PM 64.4 °F 55.6 °F 73% 29.96 in 10.0 mi SSW 9.2 mph - N/A   Scattered Clouds
12:35 PM 65.1 °F 55.2 °F 70% 29.96 in 10.0 mi SW 11.5 mph 16.1 mph N/A   Mostly Cloudy
12:55 PM 63.7 °F 54.7 °F 72% 29.96 in 10.0 mi SSW 11.5 mph - N/A   Overcast
1:15 PM 64.6 °F 55.0 °F 71% 29.96 in 10.0 mi SSW 5.8 mph - N/A   Mostly Cloudy
1:35 PM 64.9 °F 54.0 °F 68% 29.95 in 10.0 mi SW 8.1 mph - N/A   Mostly Cloudy
1:55 PM 64.9 °F 54.3 °F 68% 29.94 in 10.0 mi SW 6.9 mph - N/A   Mostly Cloudy
2:15 PM 65.5 °F 54.3 °F 67% 29.93 in 10.0 mi SW 12.7 mph 19.6 mph N/A   Mostly Cloudy
2:35 PM 65.7 °F 55.2 °F 69% 29.92 in 10.0 mi SW 10.4 mph 18.4 mph N/A   Mostly Cloudy
2:55 PM 65.3 °F 55.2 °F 70% 29.91 in 10.0 mi SW 10.4 mph 17.3 mph N/A   Scattered Clouds
3:15 PM 66.0 °F 54.7 °F 67% 29.91 in 10.0 mi SW 6.9 mph 18.4 mph N/A   Clear
3:35 PM 66.2 °F 54.3 °F 65% 29.91 in 10.0 mi SW 6.9 mph - N/A   Scattered Clouds
3:55 PM 66.4 °F 54.7 °F 66% 29.91 in 10.0 mi SW 9.2 mph - N/A   Scattered Clouds
4:15 PM 65.7 °F 54.9 °F 68% 29.90 in 10.0 mi SW 8.1 mph - N/A   Scattered Clouds
4:35 PM 65.7 °F 55.2 °F 69% 29.90 in 10.0 mi WSW 9.2 mph - N/A   Scattered Clouds
4:55 PM 65.1 °F 54.9 °F 69% 29.91 in 10.0 mi WSW 9.2 mph - N/A   Mostly Cloudy
5:15 PM 63.9 °F 55.4 °F 74% 29.91 in 10.0 mi West 5.8 mph - N/A Rain Rain
5:35 PM 61.0 °F 56.8 °F 86% 29.91 in 10.0 mi WSW 3.5 mph - 0.02 in Rain Light Rain
5:55 PM 59.7 °F 57.6 °F 93% 29.92 in 5.0 mi SW 4.6 mph - 0.06 in Rain Rain
6:15 PM 59.2 °F 57.6 °F 94% 29.91 in 10.0 mi SSW 3.5 mph - N/A Rain Light Rain
6:35 PM 58.6 °F 57.6 °F 96% 29.91 in 10.0 mi Calm Calm - N/A   Overcast
6:55 PM 58.5 °F 57.6 °F 97% 29.90 in 10.0 mi Calm Calm - N/A   Mostly Cloudy
7:15 PM 58.3 °F 57.4 °F 97% 29.89 in 10.0 mi Calm Calm - N/A   Mostly Cloudy
7:35 PM 57.4 °F 57.0 °F 99% 29.90 in 2.5 mi Calm Calm - N/A   Scattered Clouds
7:55 PM 57.2 °F 56.8 °F 99% 29.90 in 5.0 mi Calm Calm - N/A   Mostly Cloudy
8:15 PM 57.4 °F 57.0 °F 99% 29.91 in 5.0 mi Calm Calm - N/A   Mostly Cloudy
8:35 PM 57.0 °F 56.7 °F 99% 29.91 in 2.0 mi Calm Calm - N/A   Mostly Cloudy
9:15 PM 56.5 °F 56.3 °F 99% 29.93 in 4.0 mi Calm Calm - N/A   Mostly Cloudy
9:35 PM 56.8 °F 56.7 °F 99% 29.94 in 10.0 mi Calm Calm - N/A   Overcast
9:55 PM 56.8 °F 56.5 °F 99% 29.94 in 10.0 mi Calm Calm - N/A   Scattered Clouds
10:15 PM 57.0 °F 56.5 °F 98% 29.94 in 10.0 mi Calm Calm - N/A   Scattered Clouds
10:35 PM 56.8 °F 56.5 °F 99% 29.94 in 3.0 mi Calm Calm - N/A   Overcast
10:55 PM 56.7 °F 56.5 °F 99% 29.94 in 0.5 mi Calm Calm - N/A Fog Fog
11:15 PM 56.5 °F 56.3 °F 99% 29.94 in 0.2 mi Calm Calm - N/A Fog Fog
11:35 PM 56.3 °F 56.1 °F 99% 29.94 in 0.2 mi Calm Calm - N/A Fog Fog